Location: Great Falls Observatory Park
(38.9954°N, 77.3130°W)
Time: 12:11:37
(UTC-05:00)

ISS - Pass Details

Date: 27 October 2019
Orbit: 412 x 421 km, 51.6° (Epoch: 14 November)

Event Time Altitude Azimuth Distance (km) Brightness Sun altitude
Exits shadow 06:08:14 45° 276° (W) 588 -3.5 -16.7°
Maximum altitude 06:08:57 56° 324° (NW) 505 -3.6 -16.5°
Drops below altitude 10° 06:12:17 10° 44° (NE) 1,506 -0.4 -15.9°
Sets 06:14:25 0° 49° (NE) 2,372 0.8 -15.5°
